DW8199 Weather Reports


Display with metric or nautical units.
time (UTC)temp
F
wind
direction
speed
MPH
gust
MPH
rain 1hr
in
rain 24hr
in
rain mn
in
humidity
%
barometer
mb
20260504150516 64 241 3.0 12.0 0.00 0.00 0.00 55 1010.3
20260504140516 60 243 3.0 7.0 0.00 0.00 0.00 58 1010.7
20260504130516 57 219 2.0 7.0 0.00 0.00 0.00 60 1010.8
20260504110516 51 244 2.0 8.0 0.00 0.00 0.00 63 1010.6
20260504100516 52 97 2.0 7.0 0.00 0.00 0.00 60 1010.9
20260504081516 53 74 0.0 3.0 0.00 0.00 0.00 58 1011.8
20260504080516 53 228 1.0 4.0 0.00 0.00 0.00 57 1012.1
20260504050515 51 103 0.0 2.0 0.00 0.00 0.00 64 1013.8
20260504045516 51 118 0.0 1.0 0.00 0.00 0.00 64 1013.9
20260504044515 51 0.0 1.0 0.00 0.00 0.00 64 1014.0
20260504043515 51 0.0 2.0 0.00 0.00 0.00 63 1013.9
20260504042516 51 79 0.0 2.0 0.00 0.00 0.00 62 1013.8
20260504041516 52 263 0.0 1.0 0.00 0.00 0.00 62 1014.0
20260504040516 53 0.0 0.0 0.00 0.00 0.00 60 1014.1
20260504035515 53 0.0 2.0 0.00 0.00 0.00 59 1014.0
20260504034515 53 210 0.0 1.0 0.00 0.00 0.00 58 1014.0
20260504033516 53 233 1.0 4.0 0.00 0.00 0.00 58 1014.1
20260504032516 53 228 0.0 2.0 0.00 0.00 0.00 58 1014.1
20260504031515 54 224 0.0 4.0 0.00 0.00 0.00 57 1014.2
20260504030515 54 268 0.0 4.0 0.00 0.00 0.00 56 1014.3
20260504025515 54 226 1.0 4.0 0.00 0.00 0.00 56 1014.3
20260504024515 54 233 1.0 4.0 0.00 0.00 0.00 55 1014.4
20260504023536 54 216 1.0 3.0 0.00 0.00 0.00 55 1014.4
20260504022515 54 248 1.0 6.0 0.00 0.00 0.00 55 1014.5
20260504021516 54 228 2.0 7.0 0.00 0.00 0.00 54 1014.5
20260504020515 53 252 2.0 9.0 0.00 0.00 0.00 56 1014.4
20260504015515 52 224 0.0 3.0 0.00 0.00 0.00 57 1014.3
20260504014515 51 259 1.0 6.0 0.00 0.00 0.00 58 1014.0
20260504013515 52 80 0.0 1.0 0.00 0.00 0.00 58 1013.7
20260504012515 52 0.0 1.0 0.00 0.00 0.00 54 1013.6
20260504011515 53 80 1.0 1.0 0.00 0.00 0.00 54 1013.7
20260504010535 53 80 1.0 2.0 0.00 0.00 0.00 52 1013.7
20260504005516 53 55 0.0 1.0 0.00 0.00 0.00 52 1013.7
20260504004515 54 100 0.0 1.0 0.00 0.00 0.00 52 1013.7
20260504003515 55 106 0.0 1.0 0.00 0.00 0.00 52 1013.6
20260504002515 56 109 0.0 1.0 0.00 0.00 0.00 49 1013.5
20260504001514 56 0.0 2.0 0.00 0.00 0.00 49 1013.5
20260504000515 57 261 0.0 2.0 0.00 0.00 0.00 46 1013.5
20260503235515 57 328 0.0 3.0 0.00 0.00 0.00 45 1013.6
20260503234515 57 252 1.0 6.0 0.00 0.00 0.00 44 1013.7
20260503233515 58 211 1.0 5.0 0.00 0.00 0.00 44 1013.8
20260503232515 58 237 1.0 4.0 0.00 0.00 0.00 44 1013.9
20260503231517 58 217 2.0 7.0 0.00 0.00 0.00 44 1013.9
20260503230517 58 243 3.0 9.0 0.00 0.00 0.00 42 1014.0
20260503225517 59 238 2.0 6.0 0.00 0.00 0.00 44 1014.0
20260503224517 59 234 1.0 9.0 0.00 0.00 0.00 42 1014.1
20260503223516 59 263 3.0 10.0 0.00 0.00 0.00 42 1014.2
20260503222535 59 237 3.0 10.0 0.00 0.00 0.00 42 1014.2
20260503221537 59 236 3.0 10.0 0.00 0.00 0.00 42 1014.3
20260503220517 60 240 4.0 13.0 0.00 0.00 0.00 41 1014.4
20260503215517 60 244 3.0 8.0 0.00 0.00 0.00 42 1014.4
20260503214537 60 243 2.0 8.0 0.00 0.00 0.00 42 1014.4
20260503213537 60 244 3.0 9.0 0.00 0.00 0.00 41 1014.4
20260503212517 60 213 3.0 9.0 0.00 0.00 0.00 41 1014.4
20260503211517 61 298 4.0 12.0 0.00 0.00 0.00 41 1014.4
20260503210517 61 282 3.0 10.0 0.00 0.00 0.00 42 1014.5
20260503205517 61 218 3.0 12.0 0.00 0.00 0.00 41 1014.5
20260503204537 61 265 3.0 9.0 0.00 0.00 0.00 41 1014.5
20260503203517 60 210 4.0 15.0 0.00 0.00 0.00 40 1014.6
20260503202517 61 248 4.0 10.0 0.00 0.00 0.00 39 1014.7
20260503201517 61 266 3.0 9.0 0.00 0.00 0.00 40 1014.9
20260503200538 62 263 4.0 9.0 0.00 0.00 0.00 42 1015.1
20260503195517 61 244 3.0 9.0 0.00 0.00 0.00 40 1015.3
20260503194517 61 255 4.0 11.0 0.00 0.00 0.00 40 1015.5
20260503193517 60 177 4.0 14.0 0.00 0.00 0.00 41 1015.7
20260503192517 60 236 4.0 13.0 0.00 0.00 0.00 40 1015.9
20260503191517 61 310 4.0 15.0 0.00 0.00 0.00 37 1016.0
20260503190517 60 222 4.0 12.0 0.00 0.00 0.00 39 1016.1
20260503185518 60 255 3.0 7.0 0.00 0.00 0.00 38 1016.4
20260503184517 60 273 2.0 11.0 0.00 0.00 0.00 37 1016.4
20260503183517 60 262 4.0 15.0 0.00 0.00 0.00 38 1016.5
20260503182518 60 268 3.0 12.0 0.00 0.00 0.00 40 1016.6
20260503181517 59 230 4.0 14.0 0.00 0.00 0.00 40 1016.7
20260503180517 60 277 4.0 8.0 0.00 0.00 0.00 39 1016.9
20260503175514 59 268 3.0 12.0 0.00 0.00 0.00 40 1017.0
20260503174517 59 251 3.0 9.0 0.00 0.00 0.00 41 1017.0
20260503173516 59 287 4.0 12.0 0.00 0.00 0.00 42 1017.2
20260503172517 57 250 3.0 8.0 0.00 0.00 0.00 47 1017.1
20260503171517 58 293 4.0 10.0 0.00 0.00 0.00 43 1017.4
20260503170516 59 227 4.0 11.0 0.00 0.00 0.00 46 1017.5